Location: Unspecified
(47.2333°N, 39.7000°E)
Time: 23:11:36
(UTC+00:00)

ISS - Pass Details

Date: 09 July 2022
Orbit: 412 x 420 km, 51.6° (Epoch: 17 August)

Event Time Altitude Azimuth Distance (km) Brightness Sun altitude
Exits shadow 21:21:33 54° 283° (WNW) 513 -3.3 -20.5°
Maximum altitude 21:22:06 68° 338° (NNW) 453 -3.5 -20.5°
Drops below altitude 10° 21:25:28 10° 63° (ENE) 1,500 -0.6 -20.5°
Sets 21:27:35 0° 66° (ENE) 2,368 0.4 -20.5°
